PSLV R/B, 39093

Orbit data source: Space-Track

PSLV R/B, 39093 is space debris in SSO originally from a launch on Mon, 25 Feb 2013 UTC launched from the Sirharikota (SRI). Debris objects in space refer to the collection of defunct objects orbiting the Earth. Examples of debris include non-operational satellites, rocket bodies, and fragments generated from explosions, collisions, or faulty payload assembly.

Loading next visibility...
Identifier
39093, 2013-009H
Orbit
SSO
Country
Flag of ININ / IND
Related business
Manufacturer
VSSC/LPSC
Mission
Spacecraft
Bus & Motor
PS-4, Unknown motor
Mass
920 kg wet, 920 kg dry
Launch date (UTC)
2013-02-25 (13 years ago)
Launch vehicle
Unknown
Launch site
Sirharikota (SRI)
Object type
Payload
Rocket body
Debris
Shape & HBR
Cyl + Cyl + 2 Nozzle, 1.5 m
Radar Cross Section
3.727 m², Large (>1 m²)

Expand to show TLE details & history
Last TLE update: 19 hours ago

TLE from 19 hours ago
0 PSLV R/B
1 39093U 13009H   26094.57318508  .00000506  00000-0  14422-3 0  9992
2 39093  98.0594 300.6043 0042520 264.3885  95.2459 14.48683819692032
Epoch: 2026-04-04T13:45Z
TLE epoch observation values (Epoch: 2026-04-04T13:45:23.190Z)
Latitude
-0.00009°
Longitude
-98.63333°
Altitude
735.816 km
Speed
7.486 km/s
True Right ascension
20h 02m 25s
True Declination
0° 00' 00"
Sunlit
Object was in daylight at epoch
Visualization orbit readout
Latitude
Unknown
Longitude
Unknown
Altitude
Unknown
Speed
Unknown
Apparent Right ascension
Unknown
Apparent Declination
Unknown
Sunlit
N/A
Visualization observer readout
Local Sidereal Time
14:59:28
Azimuth
Unknown
Elevation
Unknown
Doppler factor
Unknown
Orbital elements
Apogee altitude
757.252 km
Perigee altitude
696.829 km
Semi-major axis
7,105.177 km
Eccentricity
0.00425
Inclination
98.0594°
RAAN
300.6043°
Arg. of periapsis
264.3885°
True anomaly
95.73086°
Mean anomaly
95.2459°
Eccentric anomaly
95.4884°
Mean motion
3.62394 °/min
Orbital period
99.34 mins
BSTAR
0.00014422
Loading maneuver chart data...
Computing Atmospheric mass density...
Loading historical data...
Loading historical data...
Loading historical data...
Loading historical data...
Loading historical data...
Loading historical data...
Loading historical data...

Documentation

Showing up to 5 results
|